Home   Weather   Nottingham   Past weeks
Flag for United Kingdom

Past Weather in Nottingham, England, United Kingdom — Yesterday and Last 2 Weeks

Now
55 °F

Passing clouds.


Feels Like: 53 °F
Forecast: 65 / 52 °F
Wind: 10 mph from West

Location: East Midlands

Current Time: May 25, 2019 at 9:03:04 am

Latest Report: May 25, 2019 at 8:20 am


Visibility: N/A

Pressure: 30.09 "Hg

Humidity: 77%

Dew Point: 48 °F

Location of NottinghamLocation

Past Weather in Nottingham — Graph

°F

Nottingham Temperature Yesterday

Maximum temperature yesterday: 66 °F (at 12:50 pm)
Minimum temperature yesterday: 46 °F (at 3:20 am)
Average temperature yesterday: 57 °F

High & Low Weather Summary for the Past Weeks

 TemperatureHumidityPressure
High68 °F (May 22, 3:50 pm)100% (May 10, 3:50 pm)30.72 "Hg (May 10, 3:50 pm)
Low36 °F (May 12, 3:50 am)32% (May 21, 6:20 pm)29.71 "Hg (May 18, 4:20 am)
Average54 °F71%30.12 "Hg
* Reported May 10 7:50 am — May 25 7:50 am, Nottingham. Weather by CustomWeather, © 2019

Note: Actual official high and low records may vary slightly from our data, if they occured in-between our weather recording intervals... More about our weather records

Advertising

Nottingham Weather History for the Previous 24 Hours

Scroll right to see more
 ConditionsComfort  
Time TempWeatherWind HumidityBarometerVisibility
7:50 am
Sat, May 25
54 °FPassing clouds.12 mph77%30.09 "HgN/A
7:20 am54 °FPassing clouds.13 mph82%30.07 "HgN/A
6:50 am54 °FPassing clouds.13 mph82%30.07 "HgN/A
6:20 am54 °FPassing clouds.10 mph88%30.07 "HgN/A
5:50 am52 °FScattered clouds.12 mph94%30.07 "HgN/A
5:20 am54 °FScattered clouds.10 mph94%30.07 "HgN/A
4:50 am54 °FPartly cloudy.8 mph94%30.07 "HgN/A
4:20 am54 °FPassing clouds.7 mph94%30.07 "Hg6 mi
3:50 am54 °FPassing clouds.8 mph88%30.07 "HgN/A
3:20 am54 °FPassing clouds.9 mph88%30.07 "HgN/A
2:50 am54 °FPassing clouds.9 mph88%30.07 "HgN/A
2:20 am54 °FPassing clouds.9 mph88%30.07 "HgN/A
1:50 am54 °FPassing clouds.8 mph88%30.07 "HgN/A
12:50 am54 °FClear.7 mph88%30.07 "Hg10 mi
12:20 am54 °FClear.10 mph88%30.07 "Hg10 mi
11:50 pm
Fri, May 24
54 °FPassing clouds.6 mph88%30.07 "HgN/A
11:20 pm54 °FClear.9 mph88%30.07 "Hg10 mi
10:50 pm52 °FClear.9 mph88%30.07 "Hg10 mi
10:20 pm55 °FClear.7 mph82%30.07 "Hg10 mi
9:50 pm55 °FClear.9 mph77%30.07 "Hg10 mi
9:20 pm57 °FClear.10 mph72%30.07 "Hg10 mi
8:50 pm59 °FPassing clouds.16 mph68%30.07 "HgN/A
8:20 pm59 °FSunny.14 mph72%30.04 "Hg10 mi
7:50 pm61 °FPassing clouds.13 mph68%30.04 "HgN/A
6:50 pm63 °FPassing clouds.13 mph59%30.04 "HgN/A
6:20 pm63 °FScattered clouds.12 mph59%30.04 "HgN/A
5:50 pm64 °FPassing clouds.13 mph60%30.04 "HgN/A
5:20 pm64 °FScattered clouds.15 mph56%30.04 "HgN/A
4:50 pm66 °FScattered clouds.17 mph52%30.04 "HgN/A
4:20 pm66 °FScattered clouds.15 mph56%30.04 "HgN/A
3:50 pm66 °FScattered clouds.15 mph56%30.04 "HgN/A
3:20 pm66 °FPassing clouds.15 mph56%30.04 "HgN/A
2:50 pm66 °FPassing clouds.15 mph56%30.04 "HgN/A
2:20 pm64 °FScattered clouds.16 mph60%30.04 "HgN/A
1:50 pm64 °FPartly sunny.20 mph60%30.04 "HgN/A
1:20 pm66 °FScattered clouds.16 mph56%30.04 "HgN/A
12:50 pm66 °FScattered clouds.17 mph56%30.04 "HgN/A
11:50 am64 °FScattered clouds.14 mph60%30.04 "HgN/A
11:20 am63 °FScattered clouds.15 mph64%30.04 "HgN/A
10:50 am63 °FBroken clouds.15 mph59%30.04 "HgN/A
10:20 am63 °FScattered clouds.14 mph68%30.04 "HgN/A
9:50 am61 °FPassing clouds.13 mph68%30.04 "HgN/A
9:20 am59 °FPassing clouds.15 mph72%30.04 "HgN/A
Weather by CustomWeather, © 2019

See weather overview